Neiva, Colombia

3:32 AM COT on February 26, 2017 (GMT -0500)
Benito Salas

Weather History for SKNV - September, 2013

Change the Weather History Date:

Friday, September 6, 2013

  Actual Average Record
Temperature  
Mean Temperature 82 °F -  
Max Temperature 93 °F 93 °F - ()
Min Temperature 72 °F 73 °F - ()
Cooling Degree Days 18    
Growing Degree Days 32 (Base 50)    
Moisture  
Dew Point 59 °F    
Average Humidity 38    
Maximum Humidity 54    
Minimum Humidity 22    
Precipitation  
Precipitation 0.00 in 0.12 in - ()
Sea Level Pressure  
Sea Level Pressure 29.84 in    
Wind  
Wind Speed 4 mph ()    
Max Wind Speed 12 mph    
Max Gust Speed -    
Visibility 6.9 miles    
Events      
T = Trace of Precipitation, MM = Missing Value Source: Averaged Metar Reports

Daily Weather History Graph

Daily Weather History Graph

Search for Another Location

Airport or City:

Trip Planner

Search our weather history database for the weather conditions in past years. The results will help you decide how hot, cold, wet, or windy it might be!

Date:

Astronomy

Sep. 06, 2013 Rise Set
Actual Time 5:54 AM COT 6:03 PM COT
Civil Twilight 5:34 AM COT 6:24 PM COT
Nautical Twilight 5:09 AM COT 6:48 PM COT
Astronomical Twilight 4:45 AM COT 7:13 PM COT
Moon 6:38 AM COT (9/6) 6:59 PM COT (9/6)
Length of Visible Light 12h 50m
Length of Day
12h 09m
New Moon, 2% of the Moon is Illuminated
Sep 6
New Moon
Sep 12
First Quarter
Sep 19
Full
Sep 26
Last Quarter
Oct 4
New

Hourly Weather History & Observations

Time (COT) Temp. Heat Index Dew Point Humidity Pressure Visibility Wind Dir Wind Speed Gust Speed Precip Events Conditions
12:00 AM 82.4 °F 82.5 °F 59.0 °F 45% 29.92 in 6.2 mi SSE 8.1 mph - N/A   Mostly Cloudy
6:00 AM 78.8 °F - 60.8 °F 54% 29.86 in 6.2 mi Calm Calm - N/A   Overcast
7:00 AM 78 °F - 61 °F 46% 29.84 in 9 mi Calm Calm - -   Mostly Cloudy
7:00 AM 78.8 °F - 60.8 °F 54% 29.91 in 6.2 mi Calm Calm - N/A   Mostly Cloudy
8:00 AM 78.8 °F - 60.8 °F 54% 29.94 in 6.2 mi South 5.8 mph - N/A   Mostly Cloudy
9:00 AM 80.6 °F 81.5 °F 60.8 °F 51% 29.96 in 6.2 mi South 6.9 mph - N/A   Mostly Cloudy
10:00 AM 83 °F - 61 °F 37% 29.87 in 9 mi SSW 6.7 mph - -   Partly Cloudy
10:00 AM 82.4 °F 82.9 °F 60.8 °F 48% 29.96 in 6.2 mi SSW 5.8 mph - N/A   Mostly Cloudy
11:00 AM 87.8 °F 87.6 °F 60.8 °F 40% 29.94 in 6.2 mi South 6.9 mph - N/A   Mostly Cloudy
12:00 PM 89.6 °F 88.1 °F 57.2 °F 33% 29.90 in 6.2 mi South 11.5 mph - N/A   Mostly Cloudy
1:00 PM 90 °F - 57 °F 23% 29.77 in 9 mi South 8.9 mph - -   Scattered Clouds
1:00 PM 89.6 °F 88.1 °F 57.2 °F 33% 29.85 in 6.2 mi South 9.2 mph - N/A   Mostly Cloudy
2:00 PM 91.4 °F 89.9 °F 57.2 °F 31% 29.81 in 6.2 mi SSE 8.1 mph - N/A   Mostly Cloudy
3:00 PM 93.2 °F 92.6 °F 59.0 °F 32% 29.78 in 6.2 mi South 6.9 mph - N/A   Mostly Cloudy
4:00 PM 92 °F - 58 °F 22% 29.66 in 9 mi South 4.5 mph - -   Scattered Clouds
4:00 PM 93.2 °F 91.9 °F 57.2 °F 30% 29.75 in 6.2 mi South 3.5 mph - N/A   Mostly Cloudy
5:00 PM 93.2 °F 91.9 °F 57.2 °F 30% 29.76 in 6.2 mi SSE 6.9 mph - N/A   Mostly Cloudy
6:00 PM 89.6 °F 88.9 °F 59.0 °F 36% 29.78 in 6.2 mi Calm Calm - N/A   Mostly Cloudy
7:00 PM 89 °F - 59 °F 26% 29.70 in 9 mi South 2.2 mph - -   Scattered Clouds
7:00 PM 87.8 °F 87.1 °F 59.0 °F 38% 29.80 in 6.2 mi Variable 2.3 mph - N/A   Mostly Cloudy
8:00 PM 86.0 °F 85.4 °F 59.0 °F 40% 29.82 in 6.2 mi Variable 2.3 mph - N/A   Scattered Clouds
9:00 PM 84.2 °F 83.8 °F 59.0 °F 42% 29.85 in 6.2 mi Variable 2.3 mph - N/A   Partly Cloudy
10:00 PM 84 °F - 59 °F 32% 29.80 in 9 mi South 4.5 mph - -   Scattered Clouds
10:00 PM 84.2 °F 83.8 °F 59.0 °F 42% 29.87 in 6.2 mi South 3.5 mph - N/A   Partly Cloudy
11:00 PM 84.2 °F 83.8 °F 59.0 °F 42% 29.90 in 6.2 mi Calm Calm - N/A   Scattered Clouds